Time,TemperatureF,DewpointF,PressureIn,WindDirection,WindDirectionDegrees,WindSpeedMPH,WindSpeedGustMPH,Humidity,HourlyPrecipIn,Conditions,Clouds,dailyrainin,SoftwareType,DateUTC
2013-05-16 00:01:00,50.1,44.2,29.98,North,354,0.0,1.0,80,0.00,,,0.00,WeatherCatV1.15B25,2013-05-16 07:01:00,
2013-05-16 00:06:00,50.2,43.9,29.98,NNE,15,0.0,0.0,79,0.00,,,0.00,WeatherCatV1.15B25,2013-05-16 07:06:00,
2013-05-16 00:11:00,50.5,43.9,29.98,NNW,344,0.0,1.0,78,0.00,,,0.00,WeatherCatV1.15B25,2013-05-16 07:11:00,
2013-05-16 00:16:00,50.6,43.7,29.98,NNW,343,0.0,0.0,77,0.00,,,0.00,WeatherCatV1.15B25,2013-05-16 07:16:00,
2013-05-16 00:21:00,50.6,43.7,29.98,NNW,343,0.0,0.0,77,0.00,,,0.00,WeatherCatV1.15B25,2013-05-16 07:21:00,
2013-05-16 00:26:00,50.6,43.7,29.98,NNW,343,0.0,0.0,77,0.00,,,0.00,WeatherCatV1.15B25,2013-05-16 07:26:00,
2013-05-16 00:31:00,50.6,43.7,29.98,NNW,331,1.0,1.0,77,0.00,,,0.00,WeatherCatV1.15B25,2013-05-16 07:31:00,
2013-05-16 00:36:00,50.6,43.7,29.98,NNW,328,0.0,0.0,77,0.00,,,0.00,WeatherCatV1.15B25,2013-05-16 07:36:00,
2013-05-16 00:41:00,50.7,43.1,29.98,NNW,341,1.0,1.0,75,0.00,,,0.00,WeatherCatV1.15B25,2013-05-16 07:41:00,
2013-05-16 00:46:00,50.9,42.9,29.97,NNW,336,0.0,0.0,74,0.00,,,0.00,WeatherCatV1.15B25,2013-05-16 07:46:00,
2013-05-16 00:51:00,50.9,42.9,29.97,NNW,336,0.0,0.0,74,0.00,,,0.00,WeatherCatV1.15B25,2013-05-16 07:51:00,
2013-05-16 00:56:00,50.9,42.9,29.97,NNW,336,0.0,0.0,74,0.00,,,0.00,WeatherCatV1.15B25,2013-05-16 07:56:00,
2013-05-16 01:01:00,50.8,43.2,29.98,NNW,336,0.0,0.0,75,0.00,,,0.00,WeatherCatV1.15B25,2013-05-16 08:01:00,
2013-05-16 01:06:00,50.7,43.4,29.98,NNW,336,0.0,0.0,76,0.00,,,0.00,WeatherCatV1.15B25,2013-05-16 08:06:00,
2013-05-16 01:11:00,50.5,43.6,29.98,NNW,336,0.0,0.0,77,0.00,,,0.00,WeatherCatV1.15B25,2013-05-16 08:11:00,
2013-05-16 01:16:00,50.3,43.7,29.98,NNW,336,0.0,0.0,78,0.00,,,0.00,WeatherCatV1.15B25,2013-05-16 08:16:00,
2013-05-16 01:21:00,50.2,43.9,29.98,NNW,336,0.0,0.0,79,0.00,,,0.00,WeatherCatV1.15B25,2013-05-16 08:21:00,
2013-05-16 01:26:00,49.9,44.0,29.98,NNW,336,0.0,0.0,80,0.00,,,0.00,WeatherCatV1.15B25,2013-05-16 08:26:00,
2013-05-16 01:31:00,49.7,44.1,29.98,NNW,336,0.0,0.0,81,0.00,,,0.00,WeatherCatV1.15B25,2013-05-16 08:31:00,
2013-05-16 01:36:00,49.5,43.9,29.98,NNW,336,0.0,0.0,81,0.00,,,0.00,WeatherCatV1.15B25,2013-05-16 08:36:00,
2013-05-16 01:41:00,49.1,43.5,29.98,NNW,336,0.0,0.0,81,0.00,,,0.00,WeatherCatV1.15B25,2013-05-16 08:41:00,
2013-05-16 01:46:00,48.7,43.8,29.97,NNW,336,0.0,0.0,83,0.00,,,0.00,WeatherCatV1.15B25,2013-05-16 08:46:00,
2013-05-16 01:51:00,48.4,43.5,29.97,NNW,336,0.0,0.0,83,0.00,,,0.00,WeatherCatV1.15B25,2013-05-16 08:51:00,
2013-05-16 01:56:00,48.2,43.3,29.97,NNW,336,0.0,0.0,83,0.00,,,0.00,WeatherCatV1.15B25,2013-05-16 08:56:00,
2013-05-16 02:01:00,48.2,43.6,29.97,NNW,336,0.0,0.0,84,0.00,,,0.00,WeatherCatV1.15B25,2013-05-16 09:01:00,
2013-05-16 02:06:00,48.2,43.6,29.97,NNW,336,0.0,0.0,84,0.00,,,0.00,WeatherCatV1.15B25,2013-05-16 09:06:00,
2013-05-16 02:11:00,48.4,43.8,29.97,NNW,336,0.0,1.0,84,0.00,,,0.00,WeatherCatV1.15B25,2013-05-16 09:11:00,
2013-05-16 02:16:00,48.7,44.1,29.97,NNW,336,0.0,2.0,84,0.00,,,0.00,WeatherCatV1.15B25,2013-05-16 09:16:00,
2013-05-16 02:21:00,49.0,44.1,29.97,NNW,335,0.0,1.0,83,0.00,,,0.00,WeatherCatV1.15B25,2013-05-16 09:21:00,
2013-05-16 02:26:00,49.2,44.6,29.97,NNW,348,0.0,0.0,84,0.00,,,0.00,WeatherCatV1.15B25,2013-05-16 09:26:00,
2013-05-16 02:31:00,49.5,44.6,29.96,North,0,1.0,4.0,83,0.00,,,0.00,WeatherCatV1.15B25,2013-05-16 09:31:00,
2013-05-16 02:36:00,50.0,45.0,29.96,NNW,334,1.0,2.0,83,0.00,,,0.00,WeatherCatV1.15B25,2013-05-16 09:36:00,
2013-05-16 02:41:00,50.4,45.1,29.96,NNW,338,1.0,3.0,82,0.00,,,0.00,WeatherCatV1.15B25,2013-05-16 09:41:00,
2013-05-16 02:46:00,50.8,45.2,29.96,NNW,333,2.0,2.0,81,0.00,,,0.00,WeatherCatV1.15B25,2013-05-16 09:46:00,
2013-05-16 02:51:00,51.0,45.0,29.96,NE,44,0.0,2.0,80,0.00,,,0.00,WeatherCatV1.15B25,2013-05-16 09:51:00,
2013-05-16 02:56:00,51.2,45.2,29.96,North,359,1.0,2.0,80,0.00,,,0.00,WeatherCatV1.15B25,2013-05-16 09:56:00,
2013-05-16 03:01:00,51.2,45.2,29.95,North,353,0.0,3.0,80,0.00,,,0.00,WeatherCatV1.15B25,2013-05-16 10:01:00,
2013-05-16 03:06:00,51.2,45.2,29.95,NNW,337,4.0,4.0,80,0.00,,,0.00,WeatherCatV1.15B25,2013-05-16 10:06:00,
2013-05-16 03:11:00,51.3,45.3,29.95,NNW,335,0.0,4.0,80,0.00,,,0.00,WeatherCatV1.15B25,2013-05-16 10:11:00,
2013-05-16 03:16:00,51.4,45.4,29.95,North,349,0.0,4.0,80,0.00,,,0.00,WeatherCatV1.15B25,2013-05-16 10:16:00,
2013-05-16 03:21:00,51.5,45.5,29.95,NNW,342,1.0,2.0,80,0.00,,,0.00,WeatherCatV1.15B25,2013-05-16 10:21:00,
2013-05-16 03:26:00,51.5,45.5,29.95,NNW,335,2.0,2.0,80,0.00,,,0.00,WeatherCatV1.15B25,2013-05-16 10:26:00,
2013-05-16 03:31:00,51.7,45.4,29.95,NNW,329,0.0,6.0,79,0.00,,,0.00,WeatherCatV1.15B25,2013-05-16 10:31:00,
2013-05-16 03:36:00,51.8,45.5,29.95,NNW,329,0.0,0.0,79,0.00,,,0.00,WeatherCatV1.15B25,2013-05-16 10:36:00,
2013-05-16 03:41:00,51.8,45.5,29.95,NNW,330,0.0,1.0,79,0.00,,,0.00,WeatherCatV1.15B25,2013-05-16 10:41:00,
2013-05-16 03:46:00,51.9,45.6,29.95,NNW,335,0.0,0.0,79,0.00,,,0.00,WeatherCatV1.15B25,2013-05-16 10:46:00,
2013-05-16 03:51:00,52.0,45.7,29.95,NNW,329,0.0,2.0,79,0.00,,,0.00,WeatherCatV1.15B25,2013-05-16 10:51:00,
2013-05-16 03:56:00,52.0,45.7,29.95,NNW,329,0.0,1.0,79,0.00,,,0.00,WeatherCatV1.15B25,2013-05-16 10:56:00,
2013-05-16 04:01:00,52.1,45.8,29.95,North,4,1.0,3.0,79,0.00,,,0.00,WeatherCatV1.15B25,2013-05-16 11:01:00,
2013-05-16 04:06:00,52.1,45.5,29.95,NNE,25,1.0,1.0,78,0.00,,,0.00,WeatherCatV1.15B25,2013-05-16 11:06:00,
2013-05-16 04:11:00,52.3,45.6,29.95,NNW,331,0.0,3.0,78,0.00,,,0.00,WeatherCatV1.15B25,2013-05-16 11:11:00,
2013-05-16 04:16:00,52.3,45.6,29.94,NNW,343,0.0,0.0,78,0.00,,,0.00,WeatherCatV1.15B25,2013-05-16 11:16:00,
2013-05-16 04:21:00,52.4,45.7,29.94,NNW,337,0.0,0.0,78,0.00,,,0.00,WeatherCatV1.15B25,2013-05-16 11:21:00,
2013-05-16 04:26:00,52.4,45.7,29.94,NNW,337,0.0,2.0,78,0.00,,,0.00,WeatherCatV1.15B25,2013-05-16 11:26:00,
2013-05-16 04:31:00,52.4,45.7,29.94,NNW,340,0.0,3.0,78,0.00,,,0.00,WeatherCatV1.15B25,2013-05-16 11:31:00,
2013-05-16 04:36:00,52.3,45.6,29.94,NNW,329,1.0,3.0,78,0.00,,,0.00,WeatherCatV1.15B25,2013-05-16 11:36:00,
2013-05-16 04:41:00,52.3,45.6,29.94,NNW,334,0.0,0.0,78,0.00,,,0.00,WeatherCatV1.15B25,2013-05-16 11:41:00,
2013-05-16 04:46:00,52.3,46.0,29.94,NNW,339,1.0,2.0,79,0.00,,,0.00,WeatherCatV1.15B25,2013-05-16 11:46:00,
2013-05-16 04:51:00,52.3,46.0,29.94,NNW,333,0.0,1.0,79,0.00,,,0.00,WeatherCatV1.15B25,2013-05-16 11:51:00,
2013-05-16 04:56:00,52.3,46.0,29.94,NNW,331,0.0,1.0,79,0.00,,,0.00,WeatherCatV1.15B25,2013-05-16 11:56:00,
2013-05-16 05:01:00,52.3,46.0,29.94,North,359,0.0,0.0,79,0.00,,,0.00,WeatherCatV1.15B25,2013-05-16 12:01:00,
2013-05-16 05:06:00,52.2,45.9,29.94,North,6,0.0,0.0,79,0.00,,,0.00,WeatherCatV1.15B25,2013-05-16 12:06:00,
2013-05-16 05:11:00,52.0,45.7,29.94,NNE,15,0.0,0.0,79,0.00,,,0.00,WeatherCatV1.15B25,2013-05-16 12:11:00,
2013-05-16 05:16:00,51.6,45.6,29.94,NNE,15,0.0,0.0,80,0.00,,,0.00,WeatherCatV1.15B25,2013-05-16 12:16:00,
2013-05-16 05:21:00,51.0,45.7,29.94,North,2,0.0,0.0,82,0.00,,,0.00,WeatherCatV1.15B25,2013-05-16 12:21:00,
2013-05-16 05:26:00,50.6,45.6,29.94,NNE,23,0.0,0.0,83,0.00,,,0.00,WeatherCatV1.15B25,2013-05-16 12:26:00,
2013-05-16 05:31:00,50.5,45.5,29.94,NNW,332,0.0,2.0,83,0.00,,,0.00,WeatherCatV1.15B25,2013-05-16 12:31:00,
2013-05-16 05:36:00,50.5,45.5,29.94,NNW,332,1.0,3.0,83,0.00,,,0.00,WeatherCatV1.15B25,2013-05-16 12:36:00,
2013-05-16 05:41:00,50.7,45.7,29.94,NNW,337,3.0,3.0,83,0.00,,,0.00,WeatherCatV1.15B25,2013-05-16 12:41:00,
2013-05-16 05:46:00,51.2,45.9,29.93,NNW,348,2.0,2.0,82,0.00,,,0.00,WeatherCatV1.15B25,2013-05-16 12:46:00,
2013-05-16 05:51:00,51.5,45.9,29.93,NNW,339,1.0,5.0,81,0.00,,,0.00,WeatherCatV1.15B25,2013-05-16 12:51:00,
2013-05-16 05:56:00,51.9,45.6,29.93,North,356,1.0,3.0,79,0.00,,,0.00,WeatherCatV1.15B25,2013-05-16 12:56:00,
2013-05-16 06:01:00,52.2,45.5,29.93,NNW,348,0.0,2.0,78,0.00,,,0.00,WeatherCatV1.15B25,2013-05-16 13:01:00,
2013-05-16 06:06:00,52.5,45.5,29.93,North,0,0.0,2.0,77,0.00,,,0.00,WeatherCatV1.15B25,2013-05-16 13:06:00,
2013-05-16 06:11:00,52.6,45.6,29.93,NNW,338,1.0,4.0,77,0.00,,,0.00,WeatherCatV1.15B25,2013-05-16 13:11:00,
2013-05-16 06:16:00,52.6,45.3,29.94,NNW,339,0.0,4.0,76,0.00,,,0.00,WeatherCatV1.15B25,2013-05-16 13:16:00,
2013-05-16 06:21:00,52.6,45.3,29.94,NNW,334,0.0,3.0,76,0.00,,,0.00,WeatherCatV1.15B25,2013-05-16 13:21:00,
2013-05-16 06:26:00,52.7,45.3,29.94,NNE,15,0.0,3.0,76,0.00,,,0.00,WeatherCatV1.15B25,2013-05-16 13:26:00,
2013-05-16 06:31:00,52.7,45.3,29.94,NNW,335,2.0,3.0,76,0.00,,,0.00,WeatherCatV1.15B25,2013-05-16 13:31:00,
2013-05-16 06:36:00,52.6,45.3,29.94,NNW,332,2.0,5.0,76,0.00,,,0.00,WeatherCatV1.15B25,2013-05-16 13:36:00,
2013-05-16 06:41:00,52.5,45.2,29.94,North,355,1.0,4.0,76,0.00,,,0.00,WeatherCatV1.15B25,2013-05-16 13:41:00,
2013-05-16 06:46:00,52.5,45.2,29.94,NNW,339,2.0,4.0,76,0.00,,,0.00,WeatherCatV1.15B25,2013-05-16 13:46:00,
2013-05-16 06:51:00,52.4,45.7,29.94,NNW,344,2.0,2.0,78,0.00,,,0.00,WeatherCatV1.15B25,2013-05-16 13:51:00,
2013-05-16 06:56:00,52.3,45.6,29.94,NNW,341,1.0,4.0,78,0.00,,,0.00,WeatherCatV1.15B25,2013-05-16 13:56:00,
2013-05-16 07:01:00,52.3,46.0,29.95,NNW,335,8.0,9.0,79,0.00,,,0.00,WeatherCatV1.15B25,2013-05-16 14:01:00,
2013-05-16 07:06:00,52.3,46.0,29.95,NNW,340,2.0,4.0,79,0.00,,,0.00,WeatherCatV1.15B25,2013-05-16 14:06:00,
2013-05-16 07:11:00,52.3,46.0,29.95,NNW,335,1.0,3.0,79,0.00,,,0.00,WeatherCatV1.15B25,2013-05-16 14:11:00,
2013-05-16 07:16:00,52.3,46.3,29.96,NNW,337,0.0,1.0,80,0.00,,,0.00,WeatherCatV1.15B25,2013-05-16 14:16:00,
2013-05-16 07:21:00,52.3,46.6,29.96,NNW,342,0.0,1.0,81,0.00,,,0.00,WeatherCatV1.15B25,2013-05-16 14:21:00,
2013-05-16 07:26:00,52.3,47.0,29.96,North,357,0.0,2.0,82,0.00,,,0.00,WeatherCatV1.15B25,2013-05-16 14:26:00,
2013-05-16 07:31:00,52.3,47.3,29.96,NW,312,0.0,3.0,83,0.00,,,0.00,WeatherCatV1.15B25,2013-05-16 14:31:00,
2013-05-16 07:36:00,52.1,47.4,29.96,NW,325,4.0,4.0,84,0.00,,,0.00,WeatherCatV1.15B25,2013-05-16 14:36:00,
2013-05-16 07:41:00,51.9,47.5,29.96,NNW,331,4.0,4.0,85,0.00,,,0.00,WeatherCatV1.15B25,2013-05-16 14:41:00,
2013-05-16 07:46:00,51.7,47.6,29.96,NNW,344,2.0,6.0,86,0.00,,,0.00,WeatherCatV1.15B25,2013-05-16 14:46:00,
2013-05-16 07:51:00,51.7,48.0,29.96,NNW,335,2.0,2.0,87,0.00,,,0.00,WeatherCatV1.15B25,2013-05-16 14:51:00,
2013-05-16 07:56:00,51.5,48.1,29.96,NNW,331,3.0,5.0,88,0.00,,,0.00,WeatherCatV1.15B25,2013-05-16 14:56:00,
2013-05-16 08:01:00,51.5,48.1,29.96,SE,135,0.0,6.0,88,0.00,,,0.00,WeatherCatV1.15B25,2013-05-16 15:01:00,
2013-05-16 08:06:00,51.6,48.2,29.96,North,356,0.0,3.0,88,0.00,,,0.00,WeatherCatV1.15B25,2013-05-16 15:06:00,
2013-05-16 08:11:00,51.6,48.5,29.96,NW,320,3.0,3.0,89,0.00,,,0.00,WeatherCatV1.15B25,2013-05-16 15:11:00,
2013-05-16 08:16:00,51.7,48.3,29.97,NNW,338,0.0,7.0,88,0.00,,,0.00,WeatherCatV1.15B25,2013-05-16 15:16:00,
2013-05-16 08:21:00,51.7,48.6,29.97,NNW,327,0.0,0.0,89,0.00,,,0.00,WeatherCatV1.15B25,2013-05-16 15:21:00,
2013-05-16 08:26:00,51.8,48.4,29.97,NNW,341,0.0,2.0,88,0.00,,,0.00,WeatherCatV1.15B25,2013-05-16 15:26:00,
2013-05-16 08:31:00,51.8,48.7,29.97,North,350,1.0,1.0,89,0.00,,,0.00,WeatherCatV1.15B25,2013-05-16 15:31:00,
2013-05-16 08:36:00,51.8,48.4,29.97,NNW,331,0.0,2.0,88,0.00,,,0.00,WeatherCatV1.15B25,2013-05-16 15:36:00,
2013-05-16 08:41:00,51.9,48.5,29.97,NNW,348,0.0,2.0,88,0.00,,,0.00,WeatherCatV1.15B25,2013-05-16 15:41:00,
2013-05-16 08:46:00,52.1,48.7,29.97,NNW,333,0.0,2.0,88,0.00,,,0.00,WeatherCatV1.15B25,2013-05-16 15:46:00,
2013-05-16 08:51:00,52.3,49.2,29.97,NNW,338,1.0,4.0,89,0.00,,,0.00,WeatherCatV1.15B25,2013-05-16 15:51:00,
2013-05-16 08:56:00,52.4,49.3,29.97,NNW,335,1.0,1.0,89,0.00,,,0.00,WeatherCatV1.15B25,2013-05-16 15:56:00,
2013-05-16 09:01:00,52.6,49.1,29.97,NNW,345,0.0,2.0,88,0.00,,,0.00,WeatherCatV1.15B25,2013-05-16 16:01:00,
2013-05-16 09:06:00,52.8,49.6,29.97,North,356,0.0,2.0,89,0.00,,,0.00,WeatherCatV1.15B25,2013-05-16 16:06:00,
2013-05-16 09:11:00,53.1,49.6,29.97,North,350,2.0,2.0,88,0.00,,,0.00,WeatherCatV1.15B25,2013-05-16 16:11:00,
2013-05-16 09:16:00,53.3,49.5,29.97,North,356,2.0,2.0,87,0.00,,,0.00,WeatherCatV1.15B25,2013-05-16 16:16:00,
2013-05-16 09:21:00,53.4,49.0,29.97,NNW,338,1.0,4.0,85,0.00,,,0.00,WeatherCatV1.15B25,2013-05-16 16:21:00,
2013-05-16 09:26:00,53.6,49.5,29.97,NNW,340,1.0,4.0,86,0.00,,,0.00,WeatherCatV1.15B25,2013-05-16 16:26:00,
2013-05-16 09:31:00,54.0,50.2,29.97,NNW,338,0.0,1.0,87,0.00,,,0.00,WeatherCatV1.15B25,2013-05-16 16:31:00,
2013-05-16 09:36:00,54.4,50.6,29.97,NNW,337,0.0,1.0,87,0.00,,,0.00,WeatherCatV1.15B25,2013-05-16 16:36:00,
2013-05-16 09:41:00,55.0,50.9,29.97,NNW,336,0.0,2.0,86,0.00,,,0.00,WeatherCatV1.15B25,2013-05-16 16:41:00,
2013-05-16 09:46:00,55.3,50.2,29.97,NNW,337,0.0,4.0,83,0.00,,,0.00,WeatherCatV1.15B25,2013-05-16 16:46:00,
2013-05-16 09:51:00,55.5,50.4,29.97,NW,322,0.0,1.0,83,0.00,,,0.00,WeatherCatV1.15B25,2013-05-16 16:51:00,
2013-05-16 09:56:00,55.6,50.2,29.97,NW,325,2.0,2.0,82,0.00,,,0.00,WeatherCatV1.15B25,2013-05-16 16:56:00,
2013-05-16 10:01:00,55.7,50.3,29.98,North,350,4.0,4.0,82,0.00,,,0.00,WeatherCatV1.15B25,2013-05-16 17:01:00,
2013-05-16 10:06:00,55.8,50.1,29.98,NNW,338,0.0,3.0,81,0.00,,,0.00,WeatherCatV1.15B25,2013-05-16 17:06:00,
2013-05-16 10:11:00,56.0,50.9,29.98,North,8,1.0,2.0,83,0.00,,,0.00,WeatherCatV1.15B25,2013-05-16 17:11:00,
2013-05-16 10:16:00,56.2,50.8,29.97,NNW,331,2.0,3.0,82,0.00,,,0.00,WeatherCatV1.15B25,2013-05-16 17:16:00,
2013-05-16 10:21:00,56.4,51.6,29.97,SE,146,0.0,4.0,84,0.00,,,0.00,WeatherCatV1.15B25,2013-05-16 17:21:00,
2013-05-16 10:26:00,56.8,51.4,29.97,ENE,74,0.0,1.0,82,0.00,,,0.00,WeatherCatV1.15B25,2013-05-16 17:26:00,
2013-05-16 10:31:00,57.5,53.0,29.97,ESE,123,1.0,2.0,85,0.00,,,0.00,WeatherCatV1.15B25,2013-05-16 17:31:00,
2013-05-16 10:36:00,57.7,51.6,29.97,North,7,2.0,2.0,80,0.00,,,0.00,WeatherCatV1.15B25,2013-05-16 17:36:00,
2013-05-16 10:41:00,57.6,52.1,29.97,ESE,115,0.0,1.0,82,0.00,,,0.00,WeatherCatV1.15B25,2013-05-16 17:41:00,
2013-05-16 10:46:00,57.5,51.4,29.97,NNW,343,0.0,3.0,80,0.00,,,0.00,WeatherCatV1.15B25,2013-05-16 17:46:00,
2013-05-16 10:51:00,57.9,53.1,29.97,SE,127,0.0,2.0,84,0.00,,,0.00,WeatherCatV1.15B25,2013-05-16 17:51:00,
2013-05-16 10:56:00,58.1,51.6,29.97,NNW,337,0.0,9.0,79,0.00,,,0.00,WeatherCatV1.15B25,2013-05-16 17:56:00,
2013-05-16 11:01:00,58.0,51.5,29.97,NNW,346,0.0,7.0,79,0.00,,,0.00,WeatherCatV1.15B25,2013-05-16 18:01:00,
2013-05-16 11:06:00,58.0,53.2,29.97,ESE,115,0.0,2.0,84,0.00,,,0.00,WeatherCatV1.15B25,2013-05-16 18:06:00,
2013-05-16 11:11:00,58.5,52.7,29.97,ESE,115,0.0,0.0,81,0.00,,,0.00,WeatherCatV1.15B25,2013-05-16 18:11:00,
2013-05-16 11:16:00,58.9,53.4,29.97,SSE,160,1.0,2.0,82,0.00,,,0.00,WeatherCatV1.15B25,2013-05-16 18:16:00,
2013-05-16 11:21:00,59.0,53.2,29.97,ESE,112,1.0,2.0,81,0.00,,,0.00,WeatherCatV1.15B25,2013-05-16 18:21:00,
2013-05-16 11:26:00,59.0,53.2,29.97,ESE,112,0.0,1.0,81,0.00,,,0.00,WeatherCatV1.15B25,2013-05-16 18:26:00,
2013-05-16 11:31:00,59.1,52.2,29.97,SSE,158,0.0,1.0,78,0.00,,,0.00,WeatherCatV1.15B25,2013-05-16 18:31:00,
2013-05-16 11:36:00,59.4,51.1,29.97,North,354,0.0,4.0,74,0.00,,,0.00,WeatherCatV1.15B25,2013-05-16 18:36:00,
2013-05-16 11:41:00,59.5,52.3,29.97,SE,138,0.0,2.0,77,0.00,,,0.00,WeatherCatV1.15B25,2013-05-16 18:41:00,
2013-05-16 11:46:00,59.6,53.1,29.97,SSE,148,0.0,1.0,79,0.00,,,0.00,WeatherCatV1.15B25,2013-05-16 18:46:00,
2013-05-16 11:51:00,60.2,53.7,29.97,ENE,69,0.0,1.0,79,0.00,,,0.00,WeatherCatV1.15B25,2013-05-16 18:51:00,
2013-05-16 11:56:00,60.9,53.6,29.97,SSE,163,0.0,2.0,77,0.00,,,0.00,WeatherCatV1.15B25,2013-05-16 18:56:00,
2013-05-16 12:01:00,61.2,53.9,29.97,North,0,0.0,2.0,77,0.00,,,0.00,WeatherCatV1.15B25,2013-05-16 19:01:00,
2013-05-16 12:06:00,61.3,53.7,29.97,East,100,0.0,1.0,76,0.00,,,0.00,WeatherCatV1.15B25,2013-05-16 19:06:00,
2013-05-16 12:11:00,60.9,52.9,29.97,SSE,154,0.0,2.0,75,0.00,,,0.00,WeatherCatV1.15B25,2013-05-16 19:11:00,
2013-05-16 12:16:00,60.7,53.4,29.97,SSE,154,0.0,0.0,77,0.00,,,0.00,WeatherCatV1.15B25,2013-05-16 19:16:00,
2013-05-16 12:21:00,60.7,53.4,29.97,SSE,153,0.0,0.0,77,0.00,,,0.00,WeatherCatV1.15B25,2013-05-16 19:21:00,
2013-05-16 12:26:00,61.0,54.4,29.97,ESE,121,0.0,0.0,79,0.00,,,0.00,WeatherCatV1.15B25,2013-05-16 19:26:00,
2013-05-16 12:31:00,61.4,53.8,29.97,SSE,148,0.0,3.0,76,0.00,,,0.00,WeatherCatV1.15B25,2013-05-16 19:31:00,
2013-05-16 12:36:00,61.8,54.5,29.97,NNW,344,0.0,2.0,77,0.00,,,0.00,WeatherCatV1.15B25,2013-05-16 19:36:00,
2013-05-16 12:41:00,62.2,54.2,29.97,SSE,148,1.0,2.0,75,0.00,,,0.00,WeatherCatV1.15B25,2013-05-16 19:41:00,
2013-05-16 12:46:00,62.4,54.4,29.97,NNW,335,0.0,2.0,75,0.00,,,0.00,WeatherCatV1.15B25,2013-05-16 19:46:00,
2013-05-16 12:51:00,62.5,53.7,29.97,SSE,149,0.0,4.0,73,0.00,,,0.00,WeatherCatV1.15B25,2013-05-16 19:51:00,
2013-05-16 12:56:00,62.7,53.9,29.97,East,86,0.0,1.0,73,0.00,,,0.00,WeatherCatV1.15B25,2013-05-16 19:56:00,
2013-05-16 13:01:00,62.9,54.1,29.97,East,99,0.0,1.0,73,0.00,,,0.00,WeatherCatV1.15B25,2013-05-16 20:01:00,
2013-05-16 13:06:00,62.9,52.6,29.97,SE,142,1.0,2.0,69,0.00,,,0.00,WeatherCatV1.15B25,2013-05-16 20:06:00,
2013-05-16 13:11:00,63.0,52.7,29.97,NNW,335,0.0,0.0,69,0.00,,,0.00,WeatherCatV1.15B25,2013-05-16 20:11:00,
2013-05-16 13:16:00,63.3,53.0,29.96,East,89,1.0,3.0,69,0.00,,,0.00,WeatherCatV1.15B25,2013-05-16 20:16:00,
2013-05-16 13:21:00,63.9,53.1,29.96,East,86,0.0,1.0,68,0.00,,,0.00,WeatherCatV1.15B25,2013-05-16 20:21:00,
2013-05-16 13:26:00,64.8,53.6,29.96,SE,133,0.0,2.0,67,0.00,,,0.00,WeatherCatV1.15B25,2013-05-16 20:26:00,
2013-05-16 13:31:00,65.9,53.8,29.96,SSE,157,0.0,2.0,65,0.00,,,0.00,WeatherCatV1.15B25,2013-05-16 20:31:00,
2013-05-16 13:36:00,66.6,53.6,29.96,NNE,26,1.0,1.0,63,0.00,,,0.00,WeatherCatV1.15B25,2013-05-16 20:36:00,
2013-05-16 13:41:00,66.4,53.0,29.96,SE,138,0.0,2.0,62,0.00,,,0.00,WeatherCatV1.15B25,2013-05-16 20:41:00,
2013-05-16 13:46:00,65.8,52.4,29.96,SE,140,1.0,2.0,62,0.00,,,0.00,WeatherCatV1.15B25,2013-05-16 20:46:00,
2013-05-16 13:51:00,65.0,52.1,29.96,SE,138,0.0,2.0,63,0.00,,,0.00,WeatherCatV1.15B25,2013-05-16 20:51:00,
2013-05-16 13:56:00,64.5,52.9,29.96,SE,138,0.0,0.0,66,0.00,,,0.00,WeatherCatV1.15B25,2013-05-16 20:56:00,
2013-05-16 14:01:00,64.6,52.6,29.96,SE,146,0.0,2.0,65,0.00,,,0.00,WeatherCatV1.15B25,2013-05-16 21:01:00,
2013-05-16 14:06:00,64.7,52.7,29.96,SE,146,0.0,1.0,65,0.00,,,0.00,WeatherCatV1.15B25,2013-05-16 21:06:00,
2013-05-16 14:11:00,64.7,52.2,29.96,SSE,150,0.0,1.0,64,0.00,,,0.00,WeatherCatV1.15B25,2013-05-16 21:11:00,
2013-05-16 14:16:00,64.6,51.7,29.96,SE,139,0.0,2.0,63,0.00,,,0.00,WeatherCatV1.15B25,2013-05-16 21:16:00,
2013-05-16 14:21:00,64.3,51.0,29.96,SSE,165,1.0,1.0,62,0.00,,,0.00,WeatherCatV1.15B25,2013-05-16 21:21:00,
2013-05-16 14:26:00,64.0,51.6,29.96,South,170,0.0,2.0,64,0.00,,,0.00,WeatherCatV1.15B25,2013-05-16 21:26:00,
2013-05-16 14:31:00,64.1,52.5,29.95,South,173,1.0,1.0,66,0.00,,,0.00,WeatherCatV1.15B25,2013-05-16 21:31:00,
2013-05-16 14:36:00,64.8,52.8,29.95,SSE,148,0.0,1.0,65,0.00,,,0.00,WeatherCatV1.15B25,2013-05-16 21:36:00,
2013-05-16 14:41:00,65.6,52.2,29.95,SSW,194,0.0,1.0,62,0.00,,,0.00,WeatherCatV1.15B25,2013-05-16 21:41:00,
2013-05-16 14:46:00,66.3,52.4,29.95,SE,135,0.0,2.0,61,0.00,,,0.00,WeatherCatV1.15B25,2013-05-16 21:46:00,
2013-05-16 14:51:00,66.4,52.1,29.95,NW,311,0.0,1.0,60,0.00,,,0.00,WeatherCatV1.15B25,2013-05-16 21:51:00,
2013-05-16 14:56:00,66.2,52.3,29.95,North,9,0.0,2.0,61,0.00,,,0.00,WeatherCatV1.15B25,2013-05-16 21:56:00,
2013-05-16 15:01:00,65.6,51.8,29.95,NE,55,0.0,2.0,61,0.00,,,0.00,WeatherCatV1.15B25,2013-05-16 22:01:00,
2013-05-16 15:06:00,65.1,52.6,29.95,NE,55,0.0,0.0,64,0.00,,,0.00,WeatherCatV1.15B25,2013-05-16 22:06:00,
2013-05-16 15:11:00,64.7,52.7,29.95,NE,50,0.0,0.0,65,0.00,,,0.00,WeatherCatV1.15B25,2013-05-16 22:11:00,
2013-05-16 15:16:00,64.3,52.3,29.95,East,82,0.0,0.0,65,0.00,,,0.00,WeatherCatV1.15B25,2013-05-16 22:16:00,
2013-05-16 15:21:00,63.7,52.1,29.95,East,88,0.0,0.0,66,0.00,,,0.00,WeatherCatV1.15B25,2013-05-16 22:21:00,
2013-05-16 15:26:00,63.1,52.4,29.95,East,88,0.0,0.0,68,0.00,,,0.00,WeatherCatV1.15B25,2013-05-16 22:26:00,
2013-05-16 15:31:00,62.8,52.5,29.94,East,88,0.0,1.0,69,0.00,,,0.00,WeatherCatV1.15B25,2013-05-16 22:31:00,
2013-05-16 15:36:00,62.6,52.7,29.94,East,88,0.0,0.0,70,0.00,,,0.00,WeatherCatV1.15B25,2013-05-16 22:36:00,
2013-05-16 15:41:00,62.2,52.7,29.94,NNE,29,0.0,0.0,71,0.00,,,0.00,WeatherCatV1.15B25,2013-05-16 22:41:00,
2013-05-16 15:46:00,62.1,53.0,29.94,East,88,0.0,1.0,72,0.00,,,0.00,WeatherCatV1.15B25,2013-05-16 22:46:00,
2013-05-16 15:51:00,62.0,52.9,29.94,East,89,0.0,0.0,72,0.00,,,0.00,WeatherCatV1.15B25,2013-05-16 22:51:00,
2013-05-16 15:56:00,61.8,52.7,29.94,East,89,0.0,0.0,72,0.00,,,0.00,WeatherCatV1.15B25,2013-05-16 22:56:00,
2013-05-16 16:01:00,61.6,52.5,29.94,East,89,0.0,0.0,72,0.00,,,0.00,WeatherCatV1.15B25,2013-05-16 23:01:00,
2013-05-16 16:06:00,61.6,52.5,29.94,ENE,73,0.0,1.0,72,0.00,,,0.00,WeatherCatV1.15B25,2013-05-16 23:06:00,
2013-05-16 16:11:00,61.6,52.5,29.94,East,96,0.0,0.0,72,0.00,,,0.00,WeatherCatV1.15B25,2013-05-16 23:11:00,
2013-05-16 16:16:00,61.7,52.6,29.94,East,96,0.0,0.0,72,0.00,,,0.00,WeatherCatV1.15B25,2013-05-16 23:16:00,
2013-05-16 16:21:00,61.8,52.7,29.94,East,96,0.0,0.0,72,0.00,,,0.00,WeatherCatV1.15B25,2013-05-16 23:21:00,
2013-05-16 16:26:00,61.9,52.8,29.94,SE,140,2.0,3.0,72,0.00,,,0.00,WeatherCatV1.15B25,2013-05-16 23:26:00,
2013-05-16 16:31:00,61.5,50.0,29.94,NNW,333,0.0,0.0,66,0.00,,,0.00,WeatherCatV1.15B25,2013-05-16 23:31:00,
2013-05-16 16:36:00,61.5,52.4,29.94,NNW,333,1.0,1.0,72,0.00,,,0.00,WeatherCatV1.15B25,2013-05-16 23:36:00,
2013-05-16 16:41:00,61.4,49.9,29.94,NNW,337,1.0,2.0,66,0.00,,,0.00,WeatherCatV1.15B25,2013-05-16 23:41:00,
2013-05-16 16:46:00,61.3,49.4,29.94,NNW,335,2.0,3.0,65,0.00,,,0.00,WeatherCatV1.15B25,2013-05-16 23:46:00,
2013-05-16 16:51:00,61.2,49.7,29.94,North,0,1.0,3.0,66,0.00,,,0.00,WeatherCatV1.15B25,2013-05-16 23:51:00,
2013-05-16 16:56:00,61.1,49.7,29.94,NNW,335,1.0,3.0,66,0.00,,,0.00,WeatherCatV1.15B25,2013-05-16 23:56:00,
2013-05-16 17:01:00,61.1,49.7,29.93,NNW,331,0.0,3.0,66,0.00,,,0.00,WeatherCatV1.15B25,2013-05-17 00:01:00,
2013-05-16 17:06:00,61.1,50.1,29.93,North,352,1.0,4.0,67,0.00,,,0.00,WeatherCatV1.15B25,2013-05-17 00:06:00,
2013-05-16 17:11:00,61.0,50.0,29.93,NNW,332,0.0,2.0,67,0.00,,,0.00,WeatherCatV1.15B25,2013-05-17 00:11:00,
2013-05-16 17:16:00,61.0,50.0,29.93,North,11,0.0,2.0,67,0.00,,,0.00,WeatherCatV1.15B25,2013-05-17 00:16:00,
2013-05-16 17:21:00,61.2,50.2,29.93,NNW,335,0.0,2.0,67,0.00,,,0.00,WeatherCatV1.15B25,2013-05-17 00:21:00,
2013-05-16 17:26:00,61.3,50.2,29.93,NNW,345,3.0,3.0,67,0.00,,,0.00,WeatherCatV1.15B25,2013-05-17 00:26:00,
2013-05-16 17:31:00,61.2,49.7,29.93,NNW,339,0.0,1.0,66,0.00,,,0.00,WeatherCatV1.15B25,2013-05-17 00:31:00,
2013-05-16 17:36:00,61.2,50.5,29.93,North,4,1.0,2.0,68,0.00,,,0.00,WeatherCatV1.15B25,2013-05-17 00:36:00,
2013-05-16 17:41:00,61.4,50.3,29.93,East,96,0.0,1.0,67,0.00,,,0.00,WeatherCatV1.15B25,2013-05-17 00:41:00,
2013-05-16 17:46:00,61.5,50.4,29.93,North,0,1.0,3.0,67,0.00,,,0.00,WeatherCatV1.15B25,2013-05-17 00:46:00,
2013-05-16 17:51:00,61.3,49.8,29.93,NNW,344,0.0,5.0,66,0.00,,,0.00,WeatherCatV1.15B25,2013-05-17 00:51:00,
2013-05-16 17:56:00,61.0,49.6,29.93,North,349,1.0,3.0,66,0.00,,,0.00,WeatherCatV1.15B25,2013-05-17 00:56:00,
2013-05-16 18:01:00,60.8,49.4,29.93,NNW,337,3.0,8.0,66,0.00,,,0.00,WeatherCatV1.15B25,2013-05-17 01:01:00,
2013-05-16 18:06:00,60.5,49.5,29.93,NNW,332,3.0,4.0,67,0.00,,,0.00,WeatherCatV1.15B25,2013-05-17 01:06:00,
2013-05-16 18:11:00,60.4,49.4,29.93,NNW,339,1.0,3.0,67,0.00,,,0.00,WeatherCatV1.15B25,2013-05-17 01:11:00,
2013-05-16 18:16:00,60.2,49.2,29.93,North,354,0.0,0.0,67,0.00,,,0.00,WeatherCatV1.15B25,2013-05-17 01:16:00,
2013-05-16 18:21:00,60.2,49.2,29.93,SE,143,1.0,5.0,67,0.00,,,0.00,WeatherCatV1.15B25,2013-05-17 01:21:00,
2013-05-16 18:26:00,60.1,49.5,29.93,ENE,73,0.0,1.0,68,0.00,,,0.00,WeatherCatV1.15B25,2013-05-17 01:26:00,
2013-05-16 18:31:00,60.0,49.4,29.93,NE,37,0.0,3.0,68,0.00,,,0.00,WeatherCatV1.15B25,2013-05-17 01:31:00,
2013-05-16 18:36:00,60.0,49.4,29.93,North,356,0.0,0.0,68,0.00,,,0.00,WeatherCatV1.15B25,2013-05-17 01:36:00,
2013-05-16 18:41:00,59.9,49.3,29.93,North,5,0.0,4.0,68,0.00,,,0.00,WeatherCatV1.15B25,2013-05-17 01:41:00,
2013-05-16 18:46:00,59.7,49.1,29.93,NNW,338,0.0,0.0,68,0.00,,,0.00,WeatherCatV1.15B25,2013-05-17 01:46:00,
2013-05-16 18:51:00,59.4,48.8,29.93,NNW,331,0.0,1.0,68,0.00,,,0.00,WeatherCatV1.15B25,2013-05-17 01:51:00,
2013-05-16 18:56:00,59.1,48.9,29.93,NNW,344,0.0,1.0,69,0.00,,,0.00,WeatherCatV1.15B25,2013-05-17 01:56:00,
2013-05-16 19:01:00,58.8,48.7,29.93,NNW,343,0.0,0.0,69,0.00,,,0.00,WeatherCatV1.15B25,2013-05-17 02:01:00,
2013-05-16 19:06:00,58.5,48.4,29.93,NNW,343,0.0,0.0,69,0.00,,,0.00,WeatherCatV1.15B25,2013-05-17 02:06:00,
2013-05-16 19:11:00,58.2,48.1,29.93,NNW,348,0.0,0.0,69,0.00,,,0.00,WeatherCatV1.15B25,2013-05-17 02:11:00,
2013-05-16 19:16:00,57.9,48.2,29.93,NNE,27,0.0,1.0,70,0.00,,,0.00,WeatherCatV1.15B25,2013-05-17 02:16:00,
2013-05-16 19:21:00,57.7,48.0,29.93,NW,325,0.0,0.0,70,0.00,,,0.00,WeatherCatV1.15B25,2013-05-17 02:21:00,
2013-05-16 19:26:00,57.4,48.1,29.93,NW,326,0.0,1.0,71,0.00,,,0.00,WeatherCatV1.15B25,2013-05-17 02:26:00,
2013-05-16 19:31:00,57.1,47.8,29.93,NNW,332,0.0,1.0,71,0.00,,,0.00,WeatherCatV1.15B25,2013-05-17 02:31:00,
2013-05-16 19:36:00,56.8,47.9,29.93,NNW,332,1.0,1.0,72,0.00,,,0.00,WeatherCatV1.15B25,2013-05-17 02:36:00,
2013-05-16 19:41:00,56.6,47.7,29.93,NNW,332,1.0,1.0,72,0.00,,,0.00,WeatherCatV1.15B25,2013-05-17 02:41:00,
2013-05-16 19:46:00,56.4,47.9,29.93,NNW,334,0.0,1.0,73,0.00,,,0.00,WeatherCatV1.15B25,2013-05-17 02:46:00,
2013-05-16 19:51:00,56.1,47.6,29.93,NNW,348,0.0,0.0,73,0.00,,,0.00,WeatherCatV1.15B25,2013-05-17 02:51:00,
2013-05-16 19:56:00,55.9,47.4,29.93,NNW,343,0.0,0.0,73,0.00,,,0.00,WeatherCatV1.15B25,2013-05-17 02:56:00,
2013-05-16 20:01:00,55.6,47.1,29.93,NNW,333,2.0,3.0,73,0.00,,,0.00,WeatherCatV1.15B25,2013-05-17 03:01:00,
2013-05-16 20:06:00,55.3,47.2,29.93,NNW,331,3.0,3.0,74,0.00,,,0.00,WeatherCatV1.15B25,2013-05-17 03:06:00,
2013-05-16 20:11:00,54.9,46.8,29.93,NNE,27,1.0,4.0,74,0.00,,,0.00,WeatherCatV1.15B25,2013-05-17 03:11:00,
2013-05-16 20:16:00,54.6,46.5,29.93,NNW,332,2.0,5.0,74,0.00,,,0.00,WeatherCatV1.15B25,2013-05-17 03:16:00,
2013-05-16 20:21:00,54.2,46.4,29.93,NNW,330,3.0,4.0,75,0.00,,,0.00,WeatherCatV1.15B25,2013-05-17 03:21:00,
2013-05-16 20:26:00,54.0,46.3,29.93,NNW,331,1.0,1.0,75,0.00,,,0.00,WeatherCatV1.15B25,2013-05-17 03:26:00,
2013-05-16 20:31:00,53.8,46.4,29.93,NNW,334,0.0,2.0,76,0.00,,,0.00,WeatherCatV1.15B25,2013-05-17 03:31:00,
2013-05-16 20:36:00,53.6,46.2,29.93,North,3,1.0,2.0,76,0.00,,,0.00,WeatherCatV1.15B25,2013-05-17 03:36:00,
2013-05-16 20:41:00,53.4,46.4,29.93,NNW,334,2.0,3.0,77,0.00,,,0.00,WeatherCatV1.15B25,2013-05-17 03:41:00,
2013-05-16 20:46:00,53.2,46.2,29.93,NNW,331,0.0,2.0,77,0.00,,,0.00,WeatherCatV1.15B25,2013-05-17 03:46:00,
2013-05-16 20:51:00,53.0,46.0,29.93,NNW,331,1.0,1.0,77,0.00,,,0.00,WeatherCatV1.15B25,2013-05-17 03:51:00,
2013-05-16 20:56:00,52.8,45.8,29.93,NNW,340,1.0,2.0,77,0.00,,,0.00,WeatherCatV1.15B25,2013-05-17 03:56:00,
2013-05-16 21:01:00,52.7,46.0,29.93,NNW,340,0.0,1.0,78,0.00,,,0.00,WeatherCatV1.15B25,2013-05-17 04:01:00,
2013-05-16 21:06:00,52.6,45.9,29.93,NNW,340,0.0,0.0,78,0.00,,,0.00,WeatherCatV1.15B25,2013-05-17 04:06:00,
2013-05-16 21:11:00,52.4,45.7,29.93,NNW,340,0.0,0.0,78,0.00,,,0.00,WeatherCatV1.15B25,2013-05-17 04:11:00,
2013-05-16 21:16:00,52.2,45.5,29.93,NNW,340,0.0,0.0,78,0.00,,,0.00,WeatherCatV1.15B25,2013-05-17 04:16:00,
2013-05-16 21:21:00,52.0,45.4,29.93,NNW,340,1.0,1.0,78,0.00,,,0.00,WeatherCatV1.15B25,2013-05-17 04:21:00,
2013-05-16 21:26:00,51.8,44.5,29.93,NNW,340,0.0,0.0,76,0.00,,,0.00,WeatherCatV1.15B25,2013-05-17 04:26:00,
2013-05-16 21:31:00,51.5,43.8,29.93,NNW,335,0.0,0.0,75,0.00,,,0.00,WeatherCatV1.15B25,2013-05-17 04:31:00,
2013-05-16 21:36:00,51.4,43.7,29.93,NNW,343,0.0,2.0,75,0.00,,,0.00,WeatherCatV1.15B25,2013-05-17 04:36:00,
2013-05-16 21:41:00,51.3,43.3,29.93,NNW,343,0.0,0.0,74,0.00,,,0.00,WeatherCatV1.15B25,2013-05-17 04:41:00,
2013-05-16 21:46:00,51.1,41.7,29.94,NNW,333,0.0,0.0,70,0.00,,,0.00,WeatherCatV1.15B25,2013-05-17 04:46:00,
2013-05-16 21:51:00,50.9,41.8,29.94,NNW,333,0.0,0.0,71,0.00,,,0.00,WeatherCatV1.15B25,2013-05-17 04:51:00,
2013-05-16 21:56:00,50.8,43.5,29.94,NNW,333,0.0,0.0,76,0.00,,,0.00,WeatherCatV1.15B25,2013-05-17 04:56:00,
2013-05-16 22:01:00,50.6,44.3,29.94,NNW,333,0.0,0.0,79,0.00,,,0.00,WeatherCatV1.15B25,2013-05-17 05:01:00,
2013-05-16 22:06:00,50.5,44.2,29.94,NNW,333,0.0,0.0,79,0.00,,,0.00,WeatherCatV1.15B25,2013-05-17 05:06:00,
2013-05-16 22:11:00,50.3,42.7,29.94,NNW,333,0.0,0.0,75,0.00,,,0.00,WeatherCatV1.15B25,2013-05-17 05:11:00,
2013-05-16 22:16:00,50.1,42.5,29.95,NNW,333,0.0,0.0,75,0.00,,,0.00,WeatherCatV1.15B25,2013-05-17 05:16:00,
2013-05-16 22:21:00,49.9,42.6,29.95,NNW,333,0.0,0.0,76,0.00,,,0.00,WeatherCatV1.15B25,2013-05-17 05:21:00,
2013-05-16 22:26:00,49.7,41.8,29.95,NNW,333,2.0,2.0,74,0.00,,,0.00,WeatherCatV1.15B25,2013-05-17 05:26:00,
2013-05-16 22:31:00,49.6,41.7,29.95,NNW,333,0.0,0.0,74,0.00,,,0.00,WeatherCatV1.15B25,2013-05-17 05:31:00,
2013-05-16 22:36:00,49.4,41.5,29.95,NNW,333,0.0,0.0,74,0.00,,,0.00,WeatherCatV1.15B25,2013-05-17 05:36:00,
2013-05-16 22:41:00,49.2,41.6,29.95,NNW,333,0.0,0.0,75,0.00,,,0.00,WeatherCatV1.15B25,2013-05-17 05:41:00,
2013-05-16 22:46:00,49.1,41.5,29.95,NNW,333,0.0,0.0,75,0.00,,,0.00,WeatherCatV1.15B25,2013-05-17 05:46:00,
2013-05-16 22:51:00,49.0,41.4,29.95,NNW,333,0.0,0.0,75,0.00,,,0.00,WeatherCatV1.15B25,2013-05-17 05:51:00,
2013-05-16 22:56:00,48.8,41.9,29.95,NNW,333,0.0,0.0,77,0.00,,,0.00,WeatherCatV1.15B25,2013-05-17 05:56:00,
2013-05-16 23:01:00,48.5,42.0,29.95,NNW,333,0.0,0.0,78,0.00,,,0.00,WeatherCatV1.15B25,2013-05-17 06:01:00,
2013-05-16 23:06:00,48.3,42.1,29.95,NW,324,0.0,2.0,79,0.00,,,0.00,WeatherCatV1.15B25,2013-05-17 06:06:00,
2013-05-16 23:11:00,48.1,42.2,29.95,NNW,329,0.0,0.0,80,0.00,,,0.00,WeatherCatV1.15B25,2013-05-17 06:11:00,
2013-05-16 23:16:00,48.0,42.5,29.94,NNW,329,0.0,0.0,81,0.00,,,0.00,WeatherCatV1.15B25,2013-05-17 06:16:00,
2013-05-16 23:21:00,48.0,42.1,29.94,NNW,329,0.0,0.0,80,0.00,,,0.00,WeatherCatV1.15B25,2013-05-17 06:21:00,
2013-05-16 23:26:00,47.8,41.9,29.94,NNW,336,2.0,3.0,80,0.00,,,0.00,WeatherCatV1.15B25,2013-05-17 06:26:00,
2013-05-16 23:31:00,47.8,42.3,29.94,NW,326,0.0,3.0,81,0.00,,,0.00,WeatherCatV1.15B25,2013-05-17 06:31:00,
2013-05-16 23:36:00,47.8,42.3,29.94,NNW,328,0.0,2.0,81,0.00,,,0.00,WeatherCatV1.15B25,2013-05-17 06:36:00,
2013-05-16 23:41:00,47.8,42.3,29.94,NNW,328,1.0,1.0,81,0.00,,,0.00,WeatherCatV1.15B25,2013-05-17 06:41:00,
2013-05-16 23:46:00,47.7,42.2,29.94,NNW,328,0.0,0.0,81,0.00,,,0.00,WeatherCatV1.15B25,2013-05-17 06:46:00,
2013-05-16 23:51:00,47.6,42.1,29.94,NNW,328,0.0,0.0,81,0.00,,,0.00,WeatherCatV1.15B25,2013-05-17 06:51:00,
2013-05-16 23:56:00,47.6,42.4,29.94,NNW,328,0.0,0.0,82,0.00,,,0.00,WeatherCatV1.15B25,2013-05-17 06:56:00,